Weather in Rogozovka

Russia / Amur Oblast     50°30′33″N   128°38′30″E
temp.,
°C
wind,
m/s
gust,
m/s
humid.,
%
clouds,
%
prec.,
mm/h
press.,
hPa
HPBL,
m
22 october, fri
fri2200:00−2nw37891 0.0 102096
03:00−3nw36905 0.0 102081
06:00−4wnw24915 0.0 102152
09:000wnw24795 0.0 1021108
12:00+4w23635 0.0 1020345
15:00+6wsw35605 0.0 1019232
18:00+2w33695 0.0 101913
21:00+2w33765 0.0 101923
23 october, sat
sat2300:00+1w33825 0.0 101919
03:00+1wsw22835 0.0 101918
06:00+1sw338231 0.0 101919
09:00+3sw34765 0.0 1019116
12:00+7wsw34602 0.0 1018368
15:00+8wsw23630 0.0 1017100
18:00+5wsw22670 0.0 101811
21:00+3w22750 0.0 101911
24 october, sun
sun2400:00+2w22794 0.0 101810
03:00+2wsw11800 0.0 101810
06:00+1sw11823 0.0 101910
09:00+4ssw22755 0.0 101975
12:00+8ssw23631 0.0 1018378
15:00+9ssw34601 0.0 1017582
18:00+5sse33715 0.0 101832
21:00+3s35764 0.0 101867
25 october, mon
mon2500:00+2s34773 0.0 101743
03:00+1s45785 0.0 101672
06:00+1s47815 0.0 101695
09:00+3s487135 0.0 1015218
12:00+8ssw57535 0.0 1014541
15:00+10ssw47500 0.0 1012925
18:00+5s48660 0.0 1013126
21:00+4sw347253 0.0 101344
26 october, tue
tue2600:00+3ssw3475100 0.0 101262
03:00+2s3576100 0.0 101177
06:00+1s4782100 0.0 1011123
09:00+3s4877100 0.0 1011227
12:00+6ssw4662100 0.0 1010518
15:00+6wsw3563100 0.0 1009472
18:00+4wsw2272100 0.1 101020
21:00+2nw3796100 0.1 1010190